{"data":{"norad_id":66115,"intl_designator":"2025-237B","name":"STARLINK-35428","alt_names":[],"object_type":"PAYLOAD","status":"ACTIVE","operator":null,"country":"US","launch_date":"2025-10-22","launch_site_code":"AFWTR","launch_vehicle":null,"mission":null,"orbit_class":"UNKNOWN","rcs_meters":null,"size_class":null,"mass_kg":null,"dimensions":null,"purposes":["comms"],"wikipedia_slug":null,"has_3d_model":false,"image_url":null,"decayed_at":null,"tle_current":{"epoch":"2026-09-20T03:48:47.965536Z","epoch_age_seconds":129881,"freshness":"FRESH","line1":"1 66115U 25237B   26263.15888849  .00020849  00000+0  62649-3 0  9990","line2":"2 66115  53.1588 214.9921 0001215  83.9742 276.1399 15.34399766 52390","mean_motion":15.34399766,"eccentricity":0.0001215,"inclination_deg":53.1588,"raan_deg":214.9921,"arg_perigee_deg":83.9742,"mean_anomaly_deg":276.1399,"bstar":0.00062649,"rev_number":5239,"period_min":93.847772393365,"perigee_km":461.87277353082,"apogee_km":463.5350978782,"semimajor_km":6840.8409357045,"source":"CELESTRAK","updated_at":"2026-09-21T09:00:35.806346Z"}}}